User: anonymous   Login
Location: George Washington National Forest Helicopter Landing Site
(38.6463°N, 79.0851°W)
Time: 18:44:47
(UTC-04:00)
Language:

A-11 Canister half - Orbit

View from above orbital plane
View from above orbital plane
View from above satellite
View from above satellite

Ground track
Ground track

The orbit data is extracted from the following two-line orbital elements,

1    51U 60009C   19230.88871490 -.00000038 +00000-0 +45683-3 0  9992
2    51 047.2105 206.5725 0108110 339.5509 020.0970 12.18276344627088
Epoch (UTC): 18 August 2019 21:19:44
Eccentricity: 0.0108110
inclination: 47.2105°
perigee height: 1514 km
apogee height: 1686 km
right ascension of ascending node: 206.5725°
argument of perigee: 339.5509°
revolutions per day: 12.18276344
mean anomaly at epoch: 20.0970°
orbit number at epoch: 62708

The dashed part of the orbit path shows where the satellite is in the earth's shadow,  

DLR